Weather in Putrajaya

Malaysia     2°54′46″N   101°40′56″E
temp.,
°C
wind,
m/s
gust,
m/s
humid.,
%
clouds,
%
prec.,
mm/h
press.,
hPa
HPBL,
m
11 april, sun
sun1123:00+25e11895 0.5 101212
02:00+24ene229244 2.4 101130
05:00+23e229073 0.1 101025
08:00+24ene12895 0.1 101284
11:00+30ene12655 0.0 1013921
14:00+33sw235240 0.1 10101845
17:00+30n116697 0.1 100827
20:00+26wsw34869 2.1 101081
12 april, mon
mon1223:00+25ene22895 1.0 101218
02:00+24e1190100 1.4 101126
05:00+24ene229093 0.1 101033
08:00+24ene22876 0.1 101279
11:00+30se116330 0.1 1013838
14:00+32ese225822 1.2 10111505
17:00+31ese126310 2.4 10091049
20:00+26sse128234 4.0 101021
13 april, tue
tue1323:00+25e228696 0.3 101325
02:00+24ene118852 0.4 101124
05:00+24ene11885 0.0 101019
08:00+25e128646 0.0 101272
11:00+30sse11667 0.0 1013860
14:00+32ese115894 1.3 10101407
17:00+31sw226288 1.6 1008477
20:00+26s1184100 6.2 101017
14 april, wed
wed1423:00+25e2490100 1.3 1012110
02:00+24ene228791 1.3 101137
05:00+24n118672 0.4 101014
08:00+24nw128921 1.4 101299
11:00+27w3480100 2.4 1014785
14:00+30wnw3465100 3.3 10111311
17:00+29nw4369100 0.2 1009890
20:00+26nw2284100 0.6 101057
15 april, thu
thu1523:00+25nw1186100 0.3 101237
02:00+25nw118695 0.3 101151
05:00+24nnw118799 0.0 101048
08:00+24e1185100 0.0 101228
11:00+28ene116598 0.0 1012500
14:00+32wnw225286 0.0 10101357
17:00+31sw335774 0.0 10081166
20:00+27w247694 0.1 1010192